Pratt, KS

12:57 PM CDT on August 25, 2016 (GMT -0500)
Pratt Industrial

Weather History for KPTT - August, 2014

Change the Weather History Date:

Monday, August 11, 2014

  Actual Average (KP28) Record (KP28)
Temperature  
Mean Temperature 75 °F 81 °F  
Max Temperature 86 °F 94 °F 115 °F (1936)
Min Temperature 64 °F 69 °F 56 °F (1979)
Degree Days  
Heating Degree Days 0 0  
Month to date heating degree days 0  
Since 1 June heating degree days 3  
Since 1 July heating degree days 0  
Cooling Degree Days 10 16  
Month to date cooling degree days 186  
Year to date cooling degree days 1223  
Since 1 June cooling degree days 1067  
Growing Degree Days 25 (Base 50)    
Moisture  
Dew Point 60 °F    
Average Humidity 65    
Maximum Humidity 94    
Minimum Humidity 33    
Precipitation  
Precipitation 0.00 in 0.10 in 2.01 in (2016)
Month to date precipitation 1.00  
Year to date precipitation 18.23  
Snow  
Snow 0.00 in 0.00 in - ()
Month to date snowfall 0.0  
Since 1 June snowfall 0.0  
Since 1 July snowfall 0.0  
Snow Depth -    
Sea Level Pressure  
Sea Level Pressure 30.18 in    
Wind  
Wind Speed 6 mph (North)    
Max Wind Speed 16 mph    
Max Gust Speed 22 mph    
Visibility 10 miles    
Events      
T = Trace of Precipitation, MM = Missing Value Source: NWS Daily Summary

Daily Weather History Graph

Daily Weather History Graph

Search for Another Location

Airport or City:

Trip Planner

Search our weather history database for the weather conditions in past years. The results will help you decide how hot, cold, wet, or windy it might be!

Date:

Astronomy

Aug. 11, 2014 Rise Set
Actual Time 6:47 AM CDT 8:32 PM CDT
Civil Twilight 6:18 AM CDT 9:00 PM CDT
Nautical Twilight 5:44 AM CDT 9:34 PM CDT
Astronomical Twilight 5:08 AM CDT 10:10 PM CDT
Moon 9:04 PM CDT (8/11) 7:52 AM CDT (8/11)
Length of Visible Light 14h 41m
Length of Day
13h 45m
Full, 99% of the Moon is Illuminated
Aug 11
Full
Aug 17
Last Quarter
Aug 25
New
Sep 2
First Quarter
Sep 8
Full

Hourly Weather History & Observations

Time (CDT) Temp. Heat Index Dew Point Humidity Pressure Visibility Wind Dir Wind Speed Gust Speed Precip Events Conditions
12:15 AM 69.8 °F - 64.4 °F 83% 30.16 in 10.0 mi NNE 3.5 mph - N/A   Clear
12:35 AM 69.8 °F - 64.4 °F 83% 30.17 in 10.0 mi North 3.5 mph - N/A   Clear
12:55 AM 69.8 °F - 64.4 °F 83% 30.16 in 10.0 mi Calm Calm - N/A   Clear
1:15 AM 69.8 °F - 64.4 °F 83% 30.16 in 10.0 mi Calm Calm - N/A   Clear
1:35 AM 69.8 °F - 64.4 °F 83% 30.16 in 10.0 mi Calm Calm - N/A   Clear
1:55 AM 68.0 °F - 64.4 °F 88% 30.16 in 10.0 mi Calm Calm - N/A   Clear
2:15 AM 68.0 °F - 64.4 °F 88% 30.16 in 10.0 mi Calm Calm - N/A   Clear
2:35 AM 68.0 °F - 64.4 °F 88% 30.16 in 10.0 mi Calm Calm - N/A   Clear
3:15 AM 68.0 °F - 64.4 °F 88% 30.15 in 10.0 mi NW 3.5 mph - N/A   Clear
3:35 AM 68.0 °F - 64.4 °F 88% 30.15 in 10.0 mi WNW 4.6 mph - N/A   Clear
3:55 AM 66.2 °F - 64.4 °F 94% 30.14 in 10.0 mi WNW 4.6 mph - N/A   Clear
4:15 AM 66.2 °F - 64.4 °F 94% 30.15 in 10.0 mi NW 3.5 mph - N/A   Clear
4:35 AM 66.2 °F - 62.6 °F 88% 30.15 in 10.0 mi Calm Calm - N/A   Clear
4:55 AM 64.4 °F - 62.6 °F 94% 30.15 in 10.0 mi NW 4.6 mph - N/A   Clear
5:15 AM 66.2 °F - 62.6 °F 88% 30.15 in 10.0 mi North 5.8 mph - N/A   Clear
5:35 AM 64.4 °F - 62.6 °F 94% 30.16 in 10.0 mi NNW 3.5 mph - N/A   Clear
5:55 AM 66.2 °F - 62.6 °F 88% 30.16 in 10.0 mi Calm Calm - N/A   Clear
6:15 AM 66.2 °F - 62.6 °F 88% 30.16 in 10.0 mi Calm Calm - N/A   Clear
6:35 AM 64.4 °F - 62.6 °F 94% 30.16 in 10.0 mi NNW 5.8 mph - N/A   Clear
6:55 AM 64.4 °F - 62.6 °F 94% 30.17 in 10.0 mi NNW 5.8 mph - N/A   Clear
7:15 AM 64.4 °F - 62.6 °F 94% 30.17 in 7.0 mi NNW 4.6 mph - N/A   Clear
7:35 AM 66.2 °F - 62.6 °F 88% 30.18 in 7.0 mi NNW 5.8 mph - N/A   Clear
7:55 AM 66.2 °F - 64.4 °F 94% 30.19 in 7.0 mi NNW 6.9 mph - N/A   Clear
8:15 AM 68.0 °F - 64.4 °F 88% 30.19 in 10.0 mi North 9.2 mph - N/A   Clear
8:35 AM 69.8 °F - 64.4 °F 83% 30.20 in 10.0 mi North 8.1 mph - N/A   Clear
8:55 AM 69.8 °F - 64.4 °F 83% 30.21 in 10.0 mi North 9.2 mph - N/A   Clear
9:15 AM 71.6 °F - 64.4 °F 78% 30.21 in 10.0 mi North 10.4 mph - N/A   Clear
9:35 AM 71.6 °F - 64.4 °F 78% 30.21 in 10.0 mi North 11.5 mph - N/A   Clear
9:55 AM 73.4 °F - 64.4 °F 73% 30.21 in 10.0 mi NNE 13.8 mph - N/A   Clear
10:15 AM 73.4 °F - 64.4 °F 73% 30.21 in 10.0 mi North 11.5 mph - N/A   Clear
10:35 AM 77.0 °F - 64.4 °F 65% 30.22 in 10.0 mi North 12.7 mph - N/A   Clear
10:55 AM 77.0 °F - 64.4 °F 65% 30.22 in 10.0 mi NNE 11.5 mph - N/A   Clear
11:15 AM 77.0 °F - 62.6 °F 61% 30.22 in 10.0 mi NNE 12.7 mph - N/A   Clear
11:35 AM 78.8 °F - 62.6 °F 57% 30.23 in 10.0 mi North 11.5 mph - N/A   Scattered Clouds
11:55 AM 78.8 °F - 62.6 °F 57% 30.23 in 10.0 mi North 11.5 mph - N/A   Scattered Clouds
12:15 PM 80.6 °F 81.5 °F 60.8 °F 51% 30.23 in 10.0 mi NNE 16.1 mph - N/A   Clear
12:35 PM 80.6 °F 81.5 °F 60.8 °F 51% 30.22 in 10.0 mi NNE 9.2 mph 16.1 mph N/A   Clear
12:55 PM 80.6 °F 81.1 °F 59.0 °F 48% 30.22 in 10.0 mi NNE 10.4 mph - N/A   Clear
1:15 PM 82.4 °F 82.9 °F 60.8 °F 48% 30.22 in 10.0 mi North 11.5 mph 16.1 mph N/A   Clear
1:35 PM 82.4 °F 81.7 °F 55.4 °F 39% 30.22 in 10.0 mi NNE 15.0 mph 19.6 mph N/A   Clear
1:55 PM 82.4 °F 81.4 °F 53.6 °F 37% 30.21 in 10.0 mi North 16.1 mph - N/A   Clear
2:15 PM 84.2 °F 82.8 °F 53.6 °F 35% 30.21 in 10.0 mi North 15.0 mph 19.6 mph N/A   Clear
2:35 PM 82.4 °F 81.7 °F 55.4 °F 39% 30.21 in 10.0 mi NE 9.2 mph 21.9 mph N/A   Scattered Clouds
2:55 PM 84.2 °F 83.5 °F 57.2 °F 40% 30.20 in 10.0 mi North 10.4 mph - N/A   Scattered Clouds
3:15 PM 84.2 °F 83.0 °F 55.4 °F 37% 30.20 in 10.0 mi North 12.7 mph 20.7 mph N/A   Scattered Clouds
3:35 PM 82.4 °F 81.4 °F 53.6 °F 37% 30.20 in 10.0 mi North 11.5 mph - N/A   Scattered Clouds
3:55 PM 86.0 °F 84.2 °F 53.6 °F 33% 30.19 in 10.0 mi NNE 12.7 mph - N/A   Scattered Clouds
4:15 PM 84.2 °F 82.8 °F 53.6 °F 35% 30.18 in 10.0 mi North 11.5 mph 17.3 mph N/A   Scattered Clouds
4:55 PM 84.2 °F - 51.8 °F 33% 30.17 in 10.0 mi North 12.7 mph 18.4 mph N/A   Clear
5:15 PM 84.2 °F 82.8 °F 53.6 °F 35% 30.17 in 10.0 mi North 11.5 mph 19.6 mph N/A   Clear
5:35 PM 84.2 °F - 51.8 °F 33% 30.16 in 10.0 mi North 13.8 mph 17.3 mph N/A   Clear
5:55 PM 84.2 °F - 51.8 °F 33% 30.16 in 10.0 mi NNE 13.8 mph - N/A   Clear
6:15 PM 82.4 °F - 51.8 °F 35% 30.16 in 10.0 mi NNE 12.7 mph - N/A   Clear
6:35 PM 82.4 °F - 51.8 °F 35% 30.15 in 10.0 mi NNE 10.4 mph - N/A   Clear
6:55 PM 82.4 °F - 51.8 °F 35% 30.14 in 10.0 mi North 11.5 mph - N/A   Clear
7:15 PM 82.4 °F 81.4 °F 53.6 °F 37% 30.14 in 10.0 mi North 8.1 mph - N/A   Clear
7:35 PM 80.6 °F 80.5 °F 55.4 °F 42% 30.14 in 10.0 mi North 6.9 mph - N/A   Clear
7:55 PM 78.8 °F - 57.2 °F 47% 30.14 in 10.0 mi North 6.9 mph - N/A   Clear
8:15 PM 77.0 °F - 57.2 °F 50% 30.14 in 10.0 mi NNE 5.8 mph - N/A   Clear
8:35 PM 77.0 °F - 55.4 °F 47% 30.14 in 10.0 mi NNE 5.8 mph - N/A   Clear
8:55 PM 75.2 °F - 55.4 °F 50% 30.15 in 10.0 mi NE 5.8 mph - N/A   Clear